This is the latest recevied weather packets stored in our database for station/object KW4UJ. If no packets are shown the sender has not sent any weather packets the latest 10 day(s).
| Time | Temp. | Humidity | Pressure | Rain* | Wind** | Luminosity | Snow |
|---|---|---|---|---|---|---|---|
| 1788480627 | 28.89° C | 81% | 1014.6 hPa | 0 mm | - | 0 W/m² | - |
| 1788480327 | 28.89° C | 81% | 1014.8 hPa | 0 mm | - | 0 W/m² | - |
| 1788480023 | 28.89° C | 80% | 1014.7 hPa | 0 mm | - | 0 W/m² | - |
| 1788479733 | 28.89° C | 80% | 1014.5 hPa | 0 mm | - | 0 W/m² | - |
| 1788479413 | 29.44° C | 80% | 1014.4 hPa | 0 mm | - | 0 W/m² | - |
| 1788479109 | 28.89° C | 80% | 1014.6 hPa | 0 mm | - | 0 W/m² | - |
| 1788478804 | 29.44° C | 80% | 1014.4 hPa | 0 mm | - | 1 W/m² | - |
| 1788478500 | 29.44° C | 80% | 1014 hPa | 0 mm | - | 1 W/m² | - |
| 1788478195 | 29.44° C | 79% | 1014 hPa | 0 mm | - | 3 W/m² | - |
| 1788477891 | 29.44° C | 79% | 1014 hPa | 0 mm | - | 4 W/m² | - |
| 1788477590 | 30° C | 79% | 1013.8 hPa | 0 mm | - | 6 W/m² | - |
| 1788477285 | 30° C | 78% | 1013.8 hPa | 0 mm | - | 9 W/m² | - |
| 1788476979 | 30° C | 77% | 1013.8 hPa | 0 mm | - | 13 W/m² | - |
| 1788476676 | 30° C | 77% | 1013.8 hPa | 0 mm | - | 17 W/m² | - |
| 1788476372 | 30° C | 77% | 1013.8 hPa | 0 mm | - | 21 W/m² | - |
| 1788476067 | 30.56° C | 76% | 1013.6 hPa | 0 mm | - | 25 W/m² | - |
| 1788475763 | 30.56° C | 76% | 1013.6 hPa | 0 mm | - | 28 W/m² | - |
| 1788475459 | 30.56° C | 75% | 1013.8 hPa | 0 mm | - | 33 W/m² | - |
| 1788475155 | 30.56° C | 74% | 1013.4 hPa | 0 mm | - | 27 W/m² | - |
| 1788474854 | 30.56° C | 75% | 1013.5 hPa | 0 mm | - | 27 W/m² | - |
| 1788474553 | 31.11° C | 74% | 1013.5 hPa | 0 mm | - | 36 W/m² | - |
| 1788474249 | 31.11° C | 73% | 1013.4 hPa | 0 mm | - | 43 W/m² | - |
| 1788473943 | 31.67° C | 72% | 1013.2 hPa | 0 mm | - | 46 W/m² | - |
| 1788473642 | 31.67° C | 71% | 1013.5 hPa | 0 mm | - | 105 W/m² | - |
| 1788473340 | 32.22° C | 71% | 1013.6 hPa | 0 mm | - | 117 W/m² | - |
* Rain latest hour (hover to see other rain measurements)
** Current wind speed in m/s (hover to see current wind gust speed)